GFSSGP_prec_cloud_336.txt.gz
Cloud_Cover
4 5 5 1 28 25 27 6 5 99 86 9 86 8 17 5 5 45 5 5 5 2 46 37 100 100 99 27 5 91 92 14 6 12 11 19 13 2 5 0 0 0 0 0 0 0 0 0 0
5 5 9 20 58 100 46 82 58 57 95 98 48 6 3 79 5 50 15 5 0 0 0 5 100 92 90 8 0 74 0 21 0 0 18 0 3 2 0 0 0 0 0 0 0 0 0 0 0
0 3 21 100 66 100 99 100 94 71 100 62 88 26 5 29 76 5 5 4 4 5 4 5 94 26 9 5 0 0 3 0 2 13 0 2 4 5 0 0 0 0 0 0 0 0 0 0 0
0 3 1 62 100 100 68 25 96 100 100 11 76 49 8 66 12 11 5 4 7 42 18 56 85 3 4 15 1 1 5 0 2 17 4 5 4 0 0 0 0 0 0 0 0 0 0 0 0
0 1 3 5 97 100 54 22 99 91 100 37 5 17 45 58 23 5 3 3 0 0 4 3 94 83 28 4 7 12 14 1 0 20 0 0 0 0 0 0 0 0 0 0 0 0 0 0 0
0 0 4 45 7 66 100 58 78 100 87 93 47 17 61 100 6 5 5 17 30 42 26 44 100 83 89 19 9 13 0 2 0 0 0 0 2 2 0 0 0 0 0 0 0 0 0 0 0
0 0 3 22 5 0 4 4 61 100 45 6 75 89 80 76 6 88 26 15 45 5 56 100 48 49 67 99 0 4 0 0 0 0 0 0 0 0 0 0 0 0 0 0 0 0 0 0 0
0 0 0 0 5 37 0 5 5 92 96 5 49 97 40 6 5 19 21 4 5 26 97 30 92 92 12 35 65 38 5 5 5 5 0 0 0 0 0 0 0 0 0 0 0 0 0 0 0
1 2 0 0 0 48 5 5 36 4 0 0 0 0 0 0 0 4 20 0 4 72 79 84 67 95 69 16 20 44 5 5 4 5 5 0 0 1 2 0 0 0 0 0 0 0 0 0 0
99 5 5 2 2 5 3 5 5 2 0 0 0 5 5 1 4 0 1 3 2 1 0 34 97 99 92 84 60 94 34 8 58 99 92 26 44 53 5 0 0 0 0 0 0 0 0 0 12
100 96 3 40 8 5 41 31 71 2 0 0 0 28 0 0 0 0 0 0 0 0 0 0 0 0 32 98 100 100 96 100 75 6 18 11 6 5 0 0 0 0 0 0 0 0 0 0 0
100 100 100 100 100 100 100 15 5 0 0 0 12 42 4 0 0 5 6 12 2 0 0 0 0 0 0 0 0 9 66 70 36 6 5 5 13 7 5 4 0 0 0 0 0 0 0 0 0
100 100 100 100 100 100 100 100 100 21 1 5 33 52 20 3 4 5 57 88 4 5 5 1 1 1 0 0 0 0 5 0 2 7 32 83 36 8 5 4 3 0 0 0 0 0 0 0 0
100 100 100 100 100 100 100 100 44 13 5 0 20 76 43 11 1 3 3 52 29 60 99 98 57 64 39 3 0 0 4 5 2 4 11 5 5 5 5 3 0 0 0 0 0 0 0 0 0
100 28 100 100 100 100 100 100 100 100 56 9 30 97 67 81 20 5 5 7 5 12 11 100 100 100 46 56 5 5 5 5 5 5 5 6 5 4 1 4 2 0 0 1 0 0 4 1 0
100 100 83 98 100 100 100 100 100 100 100 35 7 99 100 100 37 47 6 6 7 5 5 9 87 70 77 100 90 10 5 24 15 33 100 100 100 84 31 12 6 5 5 5 5 4 0 3 5
98 100 100 100 100 100 100 100 100 100 11 38 78 100 79 100 100 63 50 7 23 28 36 23 10 7 5 6 81 100 11 5 5 5 5 5 12 90 100 100 49 5 5 1 4 5 4 4 3
60 99 100 96 64 90 40 99 95 24 46 41 20 8 60 59 82 100 100 100 68 63 50 54 61 76 18 36 89 59 5 6 5 25 19 5 5 6 87 100 90 5 3 1 52 1 0 0 0
99 14 87 100 35 91 100 100 46 35 15 17 98 99 100 100 100 100 100 92 98 66 95 17 31 46 84 100 92 100 100 100 29 63 67 23 8 26 78 8 5 0 1 2 46 4 5 0 0
73 93 100 100 100 100 100 87 100 66 98 100 100 100 100 100 100 100 100 86 5 5 3 27 68 66 76 88 70 48 75 82 70 97 98 100 100 90 86 100 74 19 69 82 93 61 15 4 0
5 4 22 24 4 27 98 63 61 63 60 7 89 100 100 100 100 68 11 5 3 0 1 0 16 52 31 25 4 0 0 1 16 76 99 90 98 100 66 43 49 48 98 94 84 36 26 88 3
4 18 9 6 8 40 54 1 5 5 5 5 74 19 100 99 81 6 4 5 5 3 0 0 2 29 48 1 7 5 25 30 18 4 0 0 41 74 73 66 98 100 100 100 97 56 5 0 0
19 9 96 92 44 99 50 5 95 100 19 100 100 98 38 5 5 5 5 5 5 5 5 0 3 7 32 34 26 3 0 0 0 0 0 0 0 13 4 34 61 15 93 59 60 56 3 0 0
88 83 80 85 72 29 48 10 100 13 5 7 6 5 10 5 33 68 8 5 5 5 5 0 0 0 5 5 3 0 0 0 0 1 2 0 0 0 0 0 0 0 0 0 1 2 3 5 5
0 0 0 1 2 1 2 0 40 24 6 92 100 40 31 36 44 43 6 5 5 2 2 0 0 0 2 5 5 5 4 0 0 0 1 5 3 0 0 0 3 4 4 4 5 18 6 42 77
31 74 60 74 61 19 86 40 7 4 2 3 7 5 5 5 5 5 3 3 0 0 0 0 0 0 0 0 0 0 0 0 0 3 1 0 0 5 16 5 5 5 8 50 66 74 57 55 99
94 94 72 76 56 86 51 87 100 53 5 5 5 5 5 5 5 5 7 0 0 0 0 0 0 0 0 1 5 3 1 11 5 21 100 92 7 11 23 68 81 73 52 70 88 54 52 16 8
76 90 100 89 95 97 83 100 100 90 26 44 5 3 0 3 25 48 44 50 15 6 5 2 5 4 1 15 20 5 5 3 49 22 5 9 22 79 62 76 95 100 100 52 58 21 23 51 70
100 89 100 100 35 100 100 100 100 48 48 92 10 5 0 28 78 100 93 8 8 18 13 4 4 12 4 5 5 5 5 5 12 86 51 78 87 75 100 94 100 100 100 100 99 98 87 66 63
5 6 72 100 100 100 100 94 77 82 100 100 34 40 57 93 100 100 82 99 100 100 99 99 100 100 66 46 69 98 100 93 92 100 100 100 100 100 100 74 100 100 100 100 100 100 96 61 98

GFSSGP_prec_cloud_339.txt.gz
Cloud_Cover
5 5 0 0 0 60 100 100 74 13 21 3 99 44 38 55 21 100 8 1 5 5 5 23 89 100 91 3 0 11 31 0 0 0 0 0 8 0 0 0 0 0 0 0 0 0 0 0 0
5 5 2 0 24 68 91 5 5 94 8 4 2 86 23 8 7 7 5 5 5 5 24 34 99 100 77 17 63 96 13 1 0 0 0 4 5 0 0 0 0 0 0 0 0 0 0 0 0
0 5 5 69 96 100 100 49 6 15 43 86 22 19 28 72 5 56 80 8 5 12 5 5 99 100 63 43 32 30 4 1 0 0 0 4 2 0 0 0 0 0 0 0 0 0 0 0 0
0 0 7 100 60 100 88 97 98 5 59 100 97 85 28 13 19 25 47 23 15 6 45 5 100 100 19 5 4 22 2 0 15 3 5 4 0 0 0 0 0 0 0 0 0 0 0 0 0
0 0 3 79 100 93 81 56 83 54 5 100 6 29 49 53 14 14 3 16 18 5 4 2 93 64 46 1 1 1 0 1 18 1 13 0 0 0 0 0 0 0 0 0 0 0 0 0 0
0 0 4 97 100 100 100 100 89 46 4 100 100 22 7 4 19 12 5 4 5 5 1 4 24 84 88 8 8 8 2 0 9 12 16 0 0 0 0 0 0 0 0 0 0 0 0 0 0
0 0 4 90 100 75 100 100 100 8 75 20 80 100 60 3 0 0 4 5 2 5 5 5 6 62 16 4 11 7 4 0 7 5 2 5 0 0 0 0 0 0 0 0 0 0 0 0 0
1 0 2 21 95 100 34 14 97 52 56 99 7 53 5 28 5 3 0 0 2 3 48 77 6 3 0 5 1 4 6 5 5 5 5 1 1 0 0 0 0 0 0 0 0 0 0 0 0
19 10 0 5 96 100 18 2 3 5 5 2 100 82 12 75 33 15 4 4 1 0 5 5 7 82 31 42 100 73 94 6 47 29 5 11 53 100 5 5 5 1 0 0 0 0 0 0 0
100 99 2 4 99 100 100 19 5 5 5 0 3 1 0 0 0 0 0 0 0 1 5 0 1 0 86 100 100 100 100 97 100 100 92 100 64 7 3 1 0 0 0 0 0 0 0 0 18
100 100 6 1 76 8 99 19 5 8 5 0 4 0 0 0 0 0 0 0 0 0 0 0 0 0 0 0 0 2 0 54 100 100 98 77 38 30 4 2 2 5 0 0 0 0 0 0 0
100 100 99 50 3 5 4 99 20 7 97 9 0 0 0 0 0 0 0 0 0 14 21 6 2 0 0 0 0 0 0 0 0 0 0 0 0 0 2 5 2 1 0 0 0 0 0 0 0
100 100 100 100 96 18 5 38 100 52 2 0 0 0 0 0 0 0 0 0 3 4 4 2 2 5 3 5 5 0 0 0 0 0 0 0 2 0 0 0 0 0 0 0 0 0 0 0 0
100 100 100 100 100 78 86 36 91 98 87 26 36 2 4 4 5 2 2 0 0 0 1 3 5 9 61 100 98 85 3 2 0 4 3 5 16 8 1 4 2 0 0 5 0 0 0 0 0
100 100 100 100 100 99 100 5 94 73 14 2 0 5 1 4 4 16 5 4 5 1 5 5 5 18 98 99 72 37 60 7 5 5 7 38 11 7 98 95 70 46 46 37 6 3 0 0 0
100 100 100 100 100 100 100 100 100 100 100 100 38 18 59 78 14 10 66 35 37 97 71 5 5 60 100 88 32 98 14 37 81 100 78 100 76 7 36 12 5 57 100 100 98 27 6 1 0
98 100 100 100 100 100 100 100 100 100 100 100 100 100 58 66 100 65 14 5 7 16 52 43 39 100 100 100 98 80 15 5 5 25 98 58 22 6 11 5 5 6 48 79 100 100 99 30 1
94 100 100 100 100 100 100 100 73 100 100 100 100 98 61 46 38 84 47 90 99 76 100 59 54 96 77 100 76 60 27 4 5 5 54 48 13 5 5 41 20 5 3 5 10 62 29 0 0
100 100 100 100 100 100 100 100 100 100 100 100 100 83 30 5 33 77 100 99 45 100 57 48 93 90 80 42 100 65 82 100 50 53 100 90 96 39 5 69 96 100 99 53 5 3 5 5 2
100 100 100 100 100 68 100 100 100 100 100 100 98 100 100 100 100 100 99 100 100 41 70 85 89 100 78 92 50 100 79 79 55 87 72 84 96 77 77 59 100 99 100 100 44 5 9 99 91
22 73 100 85 98 100 79 100 100 100 98 100 93 100 100 100 100 100 99 100 100 100 100 100 94 70 84 100 85 21 5 5 20 6 2 0 0 4 27 60 21 68 97 97 58 82 59 87 100
0 2 4 6 37 85 70 44 46 100 96 72 100 100 100 100 100 100 93 62 50 42 100 100 60 100 100 91 67 85 50 68 44 3 0 0 0 0 0 0 0 5 12 7 75 100 72 100 100
3 0 0 0 4 5 4 0 5 100 100 100 53 100 100 99 23 16 71 100 100 98 28 23 50 87 86 55 88 80 89 38 0 0 0 0 0 0 0 0 0 4 65 92 90 15 28 26 100
74 67 83 8 15 2 8 52 96 100 100 100 100 96 96 97 22 95 99 99 71 70 28 39 37 61 72 88 82 18 8 5 5 5 2 3 4 5 5 2 1 0 0 0 0 0 0 0 5
18 58 34 46 80 3 70 98 98 100 100 100 100 100 100 100 100 100 100 100 100 100 98 88 51 27 15 4 5 4 0 2 2 0 0 0 2 1 2 1 2 4 4 0 0 2 0 1 0
100 100 100 100 100 100 100 99 86 100 100 37 9 89 17 50 93 27 89 70 56 74 49 41 30 8 4 1 0 1 0 3 5 5 0 0 0 1 5 5 2 5 5 5 5 5 5 5 5
99 100 100 43 16 74 20 44 99 100 100 94 5 11 42 8 5 8 67 50 45 94 94 86 50 22 8 9 5 0 5 83 58 4 0 1 2 4 19 5 5 5 57 32 5 66 75 93 67
100 86 100 78 76 92 90 100 100 100 100 8 100 100 100 78 5 13 21 64 92 100 100 100 66 46 23 7 4 5 5 5 5 4 5 26 23 10 5 5 5 5 5 5 37 10 62 77 94
6 91 100 100 99 56 57 72 90 69 67 56 100 97 100 99 92 84 45 94 100 100 100 100 95 64 70 87 76 38 37 12 5 4 5 8 7 36 49 48 83 88 96 97 96 100 100 99 98
0 0 33 75 46 100 96 15 98 100 100 100 100 100 100 100 100 97 92 54 100 100 100 100 100 100 99 100 100 100 100 90 66 75 66 80 75 94 75 91 100 100 100 100 100 100 100 97 98

GFSSGP_prec_cloud_342.txt.gz
Cloud_Cover
0 0 0 0 0 30 80 100 100 100 5 4 0 2 34 100 100 100 53 3 5 5 1 2 6 15 93 7 3 0 0 0 0 0 0 0 0 0 0 0 0 0 0 0 0 0 0 0 0
0 0 0 0 0 100 100 100 100 100 8 0 0 75 14 78 100 100 77 4 5 5 2 0 31 42 78 5 2 0 0 0 0 0 0 3 0 0 0 0 0 0 0 0 0 0 0 0 0
0 0 0 0 5 50 100 100 100 100 95 3 5 0 61 5 16 80 4 4 18 5 4 0 92 15 60 52 13 5 2 0 0 0 3 9 0 0 0 0 0 0 0 0 0 0 0 0 0
0 0 5 5 44 100 80 100 100 100 100 71 5 2 0 0 2 0 4 4 43 76 5 0 100 100 100 30 10 4 3 0 0 0 4 0 0 0 0 0 0 0 0 0 0 0 0 0 0
0 0 10 100 57 88 100 100 100 53 86 44 100 71 4 4 11 0 4 4 0 3 6 5 100 38 15 5 26 10 38 2 0 8 12 0 0 0 0 0 0 0 0 0 0 0 0 0 0
0 0 1 99 99 72 100 100 100 100 100 100 4 83 4 0 5 3 5 7 5 1 0 0 1 73 16 0 0 3 5 3 3 0 1 0 0 1 4 0 0 0 0 0 0 0 0 0 0
1 0 0 3 20 96 100 76 76 100 100 100 98 6 58 8 0 6 18 7 5 5 5 3 3 2 0 1 5 5 2 0 1 0 0 0 0 0 0 0 0 0 0 0 0 0 0 0 0
25 0 0 3 48 94 85 48 6 20 100 100 65 0 0 32 99 16 1 0 0 0 0 0 0 2 5 0 5 5 5 2 5 5 2 4 5 5 0 20 72 40 2 0 0 0 0 0 0
100 28 0 0 3 100 90 62 3 2 5 100 100 25 46 1 0 0 1 5 0 5 0 0 0 2 5 44 52 21 72 100 99 67 4 100 92 20 29 89 22 0 0 0 0 0 0 0 0
100 100 25 0 2 99 19 40 27 1 0 0 0 0 0 99 74 7 0 0 0 0 3 0 0 4 0 1 0 41 98 84 100 100 75 23 100 100 100 53 5 5 0 0 0 0 0 0 0
100 100 93 10 8 80 76 1 97 57 1 0 0 0 0 0 2 0 0 0 0 0 0 0 0 0 0 9 0 0 0 0 0 0 0 0 5 6 0 3 62 21 0 1 2 0 0 0 0
100 100 48 97 45 36 4 5 100 100 100 97 100 100 100 0 0 0 0 0 0 0 0 0 0 0 3 0 0 0 20 0 0 0 0 0 0 0 2 70 61 93 99 19 0 0 0 0 0
100 100 100 18 11 14 3 1 96 100 100 77 100 100 100 100 0 0 0 0 0 0 0 0 2 5 5 0 6 20 49 36 9 1 1 0 0 40 7 0 5 0 1 2 4 0 2 1 0
100 100 100 100 97 6 81 3 1 100 100 100 100 100 100 100 0 0 0 0 0 0 0 0 0 0 0 2 26 21 76 100 41 42 17 5 4 3 0 1 5 4 5 43 13 5 5 5 5
57 100 100 100 100 97 5 0 0 85 100 100 100 80 6 6 0 4 3 3 0 0 0 0 0 0 0 0 0 5 17 11 5 5 5 5 5 5 5 5 5 5 5 5 10 98 95 96 77
0 100 100 100 100 100 100 100 20 31 90 100 98 31 28 23 0 5 1 8 5 5 5 5 20 47 96 75 5 18 7 22 10 10 5 0 5 5 33 81 5 5 5 4 5 25 85 66 99
0 49 100 100 100 100 100 100 100 8 82 30 38 32 24 76 100 96 100 100 100 100 96 57 53 35 72 100 24 96 89 100 98 100 88 5 5 5 5 20 14 8 5 41 8 79 41 6 4
97 84 100 100 100 100 100 94 100 100 99 100 100 89 11 9 91 100 100 100 100 99 100 100 100 98 71 100 93 93 100 100 90 37 33 12 4 4 5 32 5 5 5 5 5 39 100 100 25
100 99 100 100 100 100 100 99 100 91 92 100 100 100 100 60 63 100 100 100 100 63 66 9 33 86 32 72 100 100 100 98 91 16 5 9 95 62 46 99 16 41 37 18 15 78 78 100 76
100 97 100 100 100 100 100 100 100 100 100 100 71 47 21 100 100 100 95 88 25 57 100 54 100 88 58 62 78 100 100 100 99 65 25 100 93 79 54 4 8 36 40 12 41 68 6 99 89
5 29 100 100 100 100 100 100 100 100 100 100 64 100 100 100 100 100 94 51 74 100 100 100 94 100 98 97 91 74 100 58 59 5 18 5 5 5 5 5 0 0 0 2 30 25 21 59 86
28 92 33 5 38 82 100 96 100 100 69 90 100 100 100 100 100 100 100 40 79 88 100 100 100 100 100 100 100 99 82 81 60 5 5 5 5 5 5 1 0 0 0 0 0 1 5 20 64
5 94 10 34 77 47 78 19 75 100 100 13 35 7 92 95 98 96 100 80 36 97 100 100 100 100 100 100 100 94 64 94 97 5 1 6 44 12 5 5 5 0 0 0 0 0 2 41 95
100 56 42 24 18 2 3 4 1 20 22 5 76 77 35 88 3 5 14 63 84 100 100 100 100 100 100 100 100 100 95 100 100 8 5 5 3 2 0 0 0 0 2 1 0 3 1 0 0
100 100 92 65 100 18 95 96 8 100 100 83 91 96 10 5 0 0 1 86 100 100 100 100 100 100 100 100 100 98 99 97 5 4 5 5 5 3 0 0 0 0 0 1 1 1 0 2 5
99 100 100 72 47 21 68 98 95 100 100 100 100 100 100 100 72 74 100 100 100 95 71 56 100 100 100 62 69 10 0 4 2 3 0 0 0 0 0 0 0 0 0 2 5 5 5 14 8
92 100 100 100 100 89 3 3 32 81 90 87 100 100 100 100 96 3 99 99 100 100 100 2 52 82 28 36 43 3 3 4 5 4 1 0 2 0 1 3 1 3 5 4 5 5 5 5 18
100 100 100 100 100 63 80 98 99 77 95 4 14 100 100 100 64 56 100 96 92 62 81 40 90 68 25 23 5 6 5 5 3 2 2 3 4 20 22 5 5 5 5 5 18 45 43 63 37
47 95 100 35 20 76 89 95 100 100 99 100 100 100 100 100 100 80 80 99 87 86 5 76 92 100 56 39 92 28 83 95 98 85 48 44 29 20 12 5 5 24 5 18 34 78 85 99 95
92 71 30 41 5 9 99 48 91 100 100 100 100 100 100 100 100 97 73 69 99 87 68 98 100 100 45 42 60 62 96 98 100 100 100 99 97 88 6 45 54 82 94 100 100 100 100 100 100

GFSSGP_prec_cloud_345.txt.gz
Cloud_Cover
0 0 0 4 3 0 11 100 100 100 98 76 4 8 6 67 82 58 17 87 79 11 0 0 0 4 35 0 0 0 0 0 0 0 0 0 0 0 0 0 0 0 0 0 0 0 0 0 0
0 0 3 5 14 6 52 100 100 100 24 95 100 43 2 12 90 99 56 96 100 48 0 0 0 18 9 0 0 0 0 0 0 0 0 0 0 0 0 0 0 0 0 0 0 0 0 0 0
0 0 0 1 32 6 100 100 100 100 95 72 100 34 73 29 56 100 91 100 99 63 2 0 0 10 0 0 0 0 0 0 0 0 0 0 0 0 0 0 0 0 0 0 0 0 0 0 0
0 0 0 0 0 4 100 100 100 100 100 74 100 52 100 46 5 7 100 100 100 99 3 4 12 4 0 0 0 0 0 0 0 0 0 0 0 0 0 0 0 0 0 0 0 0 0 0 0
0 0 0 0 58 10 88 100 100 99 100 100 100 100 97 3 5 0 1 3 2 1 0 5 1 38 3 1 0 0 0 0 0 0 0 0 0 0 0 0 1 0 0 0 0 0 0 0 0
0 0 0 7 7 40 100 85 100 100 100 100 100 97 71 87 56 4 3 1 8 1 0 8 98 47 0 0 0 0 0 0 0 0 0 0 0 0 0 0 0 0 0 0 0 0 0 0 0
0 3 0 4 1 100 100 100 100 100 100 100 100 100 75 29 5 32 17 0 0 4 5 5 8 79 8 0 0 0 0 0 0 0 0 0 0 0 0 0 0 0 5 4 5 0 0 0 0
9 6 0 0 2 14 100 100 100 100 100 100 100 100 69 7 20 98 31 6 11 5 0 5 5 1 0 0 0 0 0 0 0 5 4 4 0 0 8 16 3 5 6 5 0 0 0 0 0
3 15 34 0 0 1 100 100 100 100 100 100 100 100 97 30 14 5 2 71 94 7 1 4 0 0 0 0 1 5 5 4 4 5 26 10 5 10 5 74 85 99 95 4 3 1 0 0 0
5 43 94 0 0 4 32 84 100 100 91 73 1 1 1 1 54 6 5 17 4 0 0 0 0 0 0 0 0 0 0 1 0 9 37 39 24 8 0 0 1 2 0 0 0 0 0 0 0
2 98 44 5 0 1 7 94 69 20 100 100 100 63 0 0 0 0 0 18 100 35 0 0 0 0 0 0 0 0 0 0 0 0 0 0 0 0 0 0 8 34 0 0 0 0 0 0 0
0 25 43 36 0 2 0 0 0 0 93 100 100 100 100 99 31 24 90 10 14 3 0 0 0 0 0 0 0 0 0 0 0 0 0 0 0 0 0 1 0 0 0 0 0 0 0 2 0
0 0 89 89 2 0 1 0 0 2 80 100 100 100 100 100 100 100 100 72 100 88 6 0 0 0 0 0 0 0 0 0 2 6 63 75 17 5 57 0 0 0 0 0 5 1 5 4 0
0 0 21 100 60 90 5 0 0 0 5 100 100 100 100 100 100 100 100 100 97 66 91 0 0 0 0 0 0 0 0 5 4 2 7 5 4 2 5 3 0 0 2 5 5 5 27 5 5
0 0 0 100 100 99 100 13 0 7 10 100 100 100 100 100 100 100 100 100 100 56 41 5 0 0 0 0 0 0 0 1 5 5 1 0 0 4 0 0 0 0 3 5 5 5 5 5 5
5 5 0 5 100 99 98 85 82 0 96 100 100 100 100 100 100 100 100 100 100 26 0 5 3 2 0 0 0 4 5 24 3 5 1 7 6 5 5 2 0 0 0 0 2 5 5 16 52
100 70 0 0 28 94 5 33 100 6 11 100 100 100 100 100 100 100 100 100 100 100 50 5 5 37 47 52 23 1 3 5 6 10 3 100 29 5 5 5 4 4 17 25 5 5 4 43 5
100 30 4 0 0 100 100 56 100 6 4 58 100 100 100 100 100 100 100 100 100 98 100 100 95 12 55 87 99 55 8 22 50 16 5 89 56 30 100 100 26 5 54 35 5 5 35 5 0
100 94 100 92 98 35 100 100 100 100 57 5 97 100 100 100 100 100 100 100 100 100 94 100 100 100 100 77 84 42 6 27 84 85 99 100 90 95 100 100 37 79 26 4 5 5 6 80 6
97 74 99 100 100 4 58 100 100 100 91 58 100 100 100 95 100 100 100 100 100 100 100 100 100 100 100 100 41 17 6 81 100 93 100 100 100 96 100 88 17 5 4 4 4 5 5 20 72
100 34 70 56 100 14 13 80 100 100 100 100 100 100 100 89 98 100 100 100 100 100 100 100 100 100 100 77 88 96 99 90 69 100 100 93 100 100 87 10 5 5 5 5 4 5 5 2 0
100 100 13 7 10 5 7 5 100 100 100 100 100 100 100 100 100 100 100 100 100 100 100 100 100 100 100 100 100 100 100 100 100 100 55 5 6 5 5 5 5 19 11 1 0 0 4 5 0
38 99 100 58 2 0 23 2 4 100 100 100 100 100 99 90 76 98 100 100 100 100 100 100 100 100 100 100 100 100 100 100 100 100 86 5 5 5 5 5 20 5 5 5 5 5 5 5 4
54 4 36 41 100 83 99 92 93 82 8 0 2 4 35 1 4 3 7 87 100 100 100 100 100 100 100 100 100 100 100 100 100 100 23 5 5 5 5 5 5 3 1 5 5 4 4 3 3
85 74 90 55 59 64 93 17 76 5 19 5 0 3 3 0 0 0 20 100 100 100 100 100 100 100 100 100 100 100 100 100 100 100 68 5 78 34 18 7 0 0 0 2 3 0 0 2 2
100 100 99 100 99 44 92 100 89 100 44 6 4 3 0 0 0 0 94 100 100 100 100 100 100 100 100 100 100 100 100 100 100 89 5 6 99 24 3 0 5 5 5 0 2 2 0 0 0
95 73 99 97 100 88 83 100 82 94 94 100 86 74 100 100 88 96 100 100 100 100 100 100 100 100 100 100 100 100 100 100 84 5 0 5 8 7 20 6 6 30 11 5 5 5 5 8 5
28 66 98 85 15 61 83 97 100 100 100 100 45 100 100 100 99 98 100 100 100 100 100 100 100 100 100 100 100 99 81 19 5 4 3 4 5 6 11 17 6 5 5 5 5 5 5 64 50
1 81 32 26 45 92 82 100 100 99 85 100 96 99 100 100 100 100 100 100 100 100 100 100 100 100 100 100 59 27 14 39 33 14 28 39 64 53 57 56 24 26 37 37 32 56 35 69 80
75 17 5 7 16 17 75 55 100 100 70 100 98 87 100 100 100 100 100 100 100 100 99 100 100 100 100 100 100 84 24 38 6 7 13 5 7 27 39 52 88 97 99 85 92 99 100 100 100

GFSSGP_prec_cloud_348.txt.gz
Cloud_Cover
0 0 1 0 0 0 4 78 21 16 16 32 100 87 4 31 4 9 53 13 4 38 6 2 5 0 0 0 1 5 0 0 0 0 0 0 0 0 0 0 0 0 0 0 0 0 0 0 0
0 0 0 0 0 0 0 79 100 100 85 98 84 83 100 100 21 6 2 4 34 28 55 14 5 1 0 0 0 0 0 0 0 0 0 0 0 0 0 0 0 0 0 0 0 0 0 0 0
0 0 0 0 0 0 0 1 99 100 89 100 100 100 100 100 84 63 78 68 5 19 82 60 5 4 0 0 0 3 5 0 0 0 0 0 0 0 0 0 0 0 0 0 0 0 0 0 0
0 0 0 0 0 0 3 81 11 75 100 100 100 100 100 100 89 100 100 100 81 46 34 43 27 3 1 0 0 5 1 2 0 0 0 0 0 0 0 0 0 0 0 0 0 0 0 0 0
0 0 0 0 0 0 36 100 40 93 100 100 100 100 100 100 100 100 100 100 22 1 5 10 86 12 0 0 0 0 0 1 0 0 0 0 0 0 0 0 0 0 0 0 0 0 0 0 0
0 0 0 0 1 3 100 100 100 100 84 100 100 100 100 100 100 5 23 37 14 5 4 0 0 0 0 0 0 0 0 0 0 0 0 0 0 0 0 0 0 0 0 0 0 4 4 4 0
0 5 0 0 3 3 95 100 100 100 100 100 100 100 100 100 90 69 12 4 52 50 1 0 0 0 0 0 1 0 0 0 0 0 0 0 0 0 0 0 0 2 4 0 4 5 6 0 0
0 61 28 0 0 7 12 69 100 100 100 100 80 100 100 100 100 100 54 5 5 6 4 0 0 0 0 0 0 0 0 0 1 0 0 0 0 2 0 0 2 5 83 16 99 8 5 0 36
0 67 44 3 0 98 5 46 100 100 100 100 100 100 100 100 100 75 100 84 61 23 28 7 10 13 10 7 0 0 0 0 5 3 4 2 4 37 17 47 1 0 0 0 0 0 0 0 0
0 13 2 0 0 30 82 100 100 100 100 100 100 100 100 100 100 100 83 81 16 24 5 2 0 6 5 0 0 4 0 0 0 0 0 0 0 43 41 0 0 0 0 0 0 0 0 0 0
0 0 0 1 0 5 100 100 100 100 100 100 100 100 100 100 100 100 26 99 5 10 5 2 16 44 0 0 9 10 0 13 18 0 0 0 0 0 0 0 0 0 0 0 0 0 0 0 0
3 0 0 5 0 5 76 78 96 100 100 100 100 100 100 100 100 100 100 100 100 93 6 36 60 49 8 9 9 0 0 5 0 0 0 0 0 0 0 0 0 0 0 0 0 0 0 0 0
3 0 0 0 5 1 5 85 5 100 100 100 100 100 100 100 100 100 100 100 100 100 94 82 17 26 10 10 18 1 0 0 0 0 0 0 0 0 1 0 0 0 0 0 0 0 0 0 0
0 0 4 0 0 67 2 5 100 100 100 100 100 100 100 100 100 100 100 100 100 100 96 47 5 11 8 31 18 5 1 0 0 0 5 4 0 2 0 0 0 0 0 0 0 0 0 2 0
3 6 3 0 0 33 16 0 52 32 33 100 100 100 100 100 100 100 100 100 100 100 92 100 99 28 26 97 24 2 0 0 0 0 0 5 5 0 0 2 5 0 0 0 0 0 0 0 0
95 6 42 0 0 0 0 0 0 0 0 0 26 80 100 100 100 100 100 100 100 100 100 98 59 100 98 49 5 5 5 0 4 5 4 5 63 4 1 5 8 16 12 5 8 3 0 3 0
5 47 45 7 1 2 0 0 0 0 0 0 0 16 100 100 100 100 100 100 100 100 100 100 100 100 100 48 35 31 83 83 96 88 25 50 21 5 5 17 71 74 90 100 74 66 5 2 0
2 3 8 26 12 5 6 0 1 0 0 0 5 98 100 100 100 100 100 100 100 100 100 100 97 32 91 19 100 100 100 100 100 93 5 5 33 96 96 5 98 100 100 94 83 100 30 5 2
0 12 95 77 89 0 0 0 2 4 1 3 5 14 100 100 100 100 100 100 100 100 100 100 100 100 100 100 100 100 100 100 100 100 63 16 94 100 100 100 100 100 98 100 100 100 45 5 4
0 4 12 97 97 10 4 28 30 11 57 16 91 37 93 86 22 100 100 100 100 85 100 100 100 100 100 100 100 100 100 100 100 100 100 74 34 100 100 100 100 100 100 99 42 5 5 5 1
0 0 63 100 100 9 10 40 100 100 49 15 20 6 10 17 92 85 100 100 100 83 100 75 100 100 100 100 100 100 100 100 100 100 97 64 65 100 100 100 100 78 57 2 2 5 5 5 5
0 0 0 53 100 100 88 19 100 100 5 0 33 99 79 2 31 100 98 100 100 100 100 99 94 83 64 100 100 100 100 100 100 99 100 100 100 100 100 100 100 31 1 5 25 56 55 29 84
0 0 0 0 76 100 95 5 61 100 55 5 0 9 93 100 100 100 100 100 100 100 100 100 100 100 100 100 100 100 100 100 100 82 91 100 100 100 99 77 69 16 5 23 27 18 58 98 17
0 0 4 0 0 20 99 91 72 93 94 4 0 0 4 42 100 100 100 100 100 100 100 100 100 100 100 100 100 100 100 100 100 100 100 100 100 100 90 76 23 5 6 64 64 49 50 5 4
72 4 2 9 5 5 2 74 15 19 17 48 1 1 92 81 52 94 100 100 100 100 100 100 89 99 100 100 100 100 100 100 100 100 100 100 98 20 8 90 79 46 57 62 34 5 5 5 10
7 1 0 5 5 5 93 46 100 13 84 24 26 0 15 77 53 75 99 99 100 100 100 100 100 100 100 100 100 100 100 100 100 100 100 100 34 100 94 99 100 100 5 5 5 5 5 5 5
0 17 3 0 4 5 99 100 100 35 10 73 68 10 20 52 100 100 100 100 100 100 100 100 100 100 100 100 100 100 100 100 100 100 100 100 100 100 51 54 28 58 15 5 34 16 5 5 5
0 0 0 2 3 9 2 100 99 38 100 93 100 100 91 51 50 100 100 100 100 100 100 100 100 100 100 100 100 100 100 100 100 100 100 100 100 96 95 96 88 25 10 62 49 12 12 39 63
0 0 0 0 4 37 25 26 99 91 100 100 100 100 100 100 100 99 100 100 90 100 100 100 100 100 100 100 100 100 100 100 100 98 89 100 95 99 100 50 5 5 56 88 100 97 100 59 97
0 0 0 6 0 24 100 26 5 6 87 100 99 100 100 100 100 100 100 100 100 100 100 100 100 100 100 100 100 100 100 100 100 100 100 100 100 82 19 22 48 81 91 100 81 54 96 99 92